• In Hungary
  • List of Countries
  • For 7 days
  • Water Temperature
  • Satellite Maps
  • Weather Map
  • News
  • Weather Widgets
  • user-avatar
    Login

    Hourly Weather Postiine

    Today, 21 January, Sunday

    Time Temperature Precipitation Wind Pressure Humidity
    00:00 -4°C° 0.1 mm 2 mps 739 mmHg 94%
    01:00 -2°C° 0.1 mm 1 mps 739 mmHg 95%
    02:00 -2°C° 0.1 mm 1 mps 738 mmHg 95%
    03:00 -2°C° 0 mm 1 mps 738 mmHg 95%
    04:00 -2°C° 0 mm 1 mps 738 mmHg 96%
    05:00 -3°C° 0 mm 1 mps 738 mmHg 96%
    06:00 -3°C° 0 mm 1 mps 738 mmHg 96%
    07:00 -3°C° 0 mm 1 mps 739 mmHg 96%
    08:00 -3°C° 0 mm 1 mps 739 mmHg 96%
    09:00 -2°C° 0 mm 1 mps 739 mmHg 94%
    10:00 -1°C° 0 mm 1 mps 740 mmHg 92%
    11:00 -1°C° 0 mm 1 mps 740 mmHg 89%
    12:00 0°C° 0 mm 1 mps 740 mmHg 88%
    13:00 0°C° 0 mm 1 mps 740 mmHg 87%
    14:00 0°C° 0 mm 1 mps 740 mmHg 85%
    15:00 0°C° 0 mm 1 mps 740 mmHg 87%
    16:00 -1°C° 0 mm 1 mps 741 mmHg 89%
    17:00 -2°C° 0 mm 1 mps 741 mmHg 91%
    18:00 -4°C° 0 mm 2 mps 741 mmHg 92%
    19:00 -4°C° 0 mm 2 mps 741 mmHg 93%
    20:00 -4°C° 0 mm 2 mps 742 mmHg 93%
    21:00 -4°C° 0 mm 2 mps 742 mmHg 94%
    22:00 -4°C° 0 mm 2 mps 743 mmHg 94%
    23:00 -6°C° 0 mm 3 mps 743 mmHg 94%

    Tomorrow, 22 January, Monday

    Time Temperature Precipitation Wind Pressure Humidity
    00:00 -6°C° 0.1 mm 3 mps 743 mmHg 95%
    01:00 -6°C° 0.1 mm 3 mps 743 mmHg 95%
    02:00 -6°C° 0.1 mm 3 mps 744 mmHg 95%
    03:00 -6°C° 0.1 mm 3 mps 744 mmHg 95%
    04:00 -6°C° 0.1 mm 3 mps 744 mmHg 95%
    05:00 -7°C° 0.1 mm 4 mps 744 mmHg 95%
    06:00 -8°C° 0.1 mm 4 mps 744 mmHg 95%
    07:00 -8°C° 0.1 mm 4 mps 744 mmHg 94%
    08:00 -8°C° 0.1 mm 4 mps 744 mmHg 94%
    09:00 -7°C° 0.1 mm 4 mps 745 mmHg 93%
    10:00 -7°C° 0.1 mm 4 mps 745 mmHg 92%
    11:00 -6°C° 0.1 mm 3 mps 745 mmHg 91%
    12:00 -6°C° 0.1 mm 3 mps 745 mmHg 90%
    13:00 -5°C° 0.1 mm 3 mps 746 mmHg 90%
    14:00 -5°C° 0.1 mm 3 mps 746 mmHg 89%
    15:00 -5°C° 0 mm 3 mps 746 mmHg 90%
    16:00 -6°C° 0 mm 3 mps 746 mmHg 90%
    17:00 -6°C° 0 mm 3 mps 747 mmHg 91%
    18:00 -6°C° 0 mm 3 mps 747 mmHg 92%
    19:00 -7°C° 0 mm 3 mps 747 mmHg 92%
    20:00 -7°C° 0 mm 3 mps 747 mmHg 93%
    21:00 -6°C° 0 mm 2 mps 748 mmHg 93%
    22:00 -6°C° 0 mm 2 mps 748 mmHg 93%
    23:00 -6°C° 0 mm 2 mps 749 mmHg 94%

    Day after tomorrow, 23 January, Tuesday

    Time Temperature Precipitation Wind Pressure Humidity
    00:00 -7°C° 0 mm 2 mps 749 mmHg 94%
    01:00 -7°C° 0 mm 2 mps 750 mmHg 94%
    02:00 -8°C° 0 mm 2 mps 750 mmHg 94%
    03:00 -8°C° 0 mm 2 mps 750 mmHg 94%
    04:00 -9°C° 0 mm 2 mps 750 mmHg 94%
    05:00 -9°C° 0 mm 2 mps 751 mmHg 94%
    06:00 -10°C° 0 mm 2 mps 751 mmHg 93%
    07:00 -10°C° 0 mm 2 mps 752 mmHg 93%
    08:00 -12°C° 0 mm 2 mps 752 mmHg 92%
    09:00 -9°C° 0 mm 1 mps 753 mmHg 89%
    10:00 -8°C° 0 mm 1 mps 753 mmHg 86%
    11:00 -7°C° 0 mm 1 mps 754 mmHg 83%
    12:00 -7°C° 0 mm 1 mps 754 mmHg 81%
    13:00 -6°C° 0 mm 1 mps 754 mmHg 79%
    14:00 -5°C° 0 mm 0 mps 754 mmHg 76%
    15:00 -6°C° 0 mm 1 mps 755 mmHg 79%
    16:00 -7°C° 0 mm 1 mps 755 mmHg 82%
    17:00 -8°C° 0 mm 1 mps 755 mmHg 85%
    18:00 -8°C° 0 mm 1 mps 756 mmHg 85%
    19:00 -9°C° 0 mm 1 mps 756 mmHg 86%
    20:00 -9°C° 0 mm 1 mps 756 mmHg 86%
    21:00 -9°C° 0 mm 1 mps 756 mmHg 86%
    22:00 -9°C° 0 mm 1 mps 757 mmHg 86%
    23:00 -10°C° 0 mm 1 mps 757 mmHg 86%

    24 January, Wednesday

    Time Temperature Precipitation Wind Pressure Humidity
    00:00 -10°C° 0 mm 1 mps 757 mmHg 86%
    01:00 -10°C° 0 mm 1 mps 757 mmHg 85%
    02:00 -10°C° 0 mm 1 mps 757 mmHg 85%
    03:00 -10°C° 0 mm 1 mps 757 mmHg 84%
    04:00 -12°C° 0 mm 2 mps 757 mmHg 83%
    05:00 -12°C° 0 mm 2 mps 757 mmHg 82%
    06:00 -12°C° 0 mm 2 mps 757 mmHg 82%
    07:00 -12°C° 0 mm 2 mps 757 mmHg 81%
    08:00 -13°C° 0 mm 2 mps 758 mmHg 80%
    09:00 -10°C° 0 mm 2 mps 758 mmHg 78%
    10:00 -10°C° 0 mm 3 mps 758 mmHg 75%
    11:00 -9°C° 0 mm 3 mps 758 mmHg 73%
    12:00 -8°C° 0 mm 3 mps 758 mmHg 73%
    13:00 -7°C° 0 mm 3 mps 758 mmHg 73%
    14:00 -7°C° 0 mm 3 mps 757 mmHg 73%
    15:00 -7°C° 0 mm 3 mps 757 mmHg 75%
    16:00 -8°C° 0 mm 3 mps 757 mmHg 77%
    17:00 -9°C° 0 mm 3 mps 757 mmHg 79%
    18:00 -10°C° 0 mm 3 mps 757 mmHg 78%
    19:00 -10°C° 0 mm 3 mps 757 mmHg 77%
    20:00 -10°C° 0 mm 3 mps 757 mmHg 76%
    21:00 -12°C° 0 mm 3 mps 757 mmHg 75%
    22:00 -12°C° 0 mm 3 mps 757 mmHg 74%
    23:00 -12°C° 0 mm 3 mps 756 mmHg 73%

    25 January, Thursday

    Time Temperature Precipitation Wind Pressure Humidity
    00:00 -12°C° 0 mm 3 mps 756 mmHg 72%
    01:00 -12°C° 0 mm 3 mps 756 mmHg 72%
    02:00 -12°C° 0 mm 3 mps 756 mmHg 72%
    03:00 -12°C° 0 mm 3 mps 756 mmHg 72%
    04:00 -12°C° 0 mm 3 mps 755 mmHg 71%
    05:00 -12°C° 0 mm 3 mps 755 mmHg 71%
    06:00 -12°C° 0 mm 3 mps 755 mmHg 71%
    07:00 -13°C° 0 mm 3 mps 755 mmHg 71%
    08:00 -13°C° 0 mm 3 mps 755 mmHg 71%
    09:00 -10°C° 0 mm 3 mps 755 mmHg 70%
    10:00 -9°C° 0 mm 3 mps 755 mmHg 69%
    11:00 -9°C° 0 mm 4 mps 755 mmHg 68%
    12:00 -8°C° 0 mm 4 mps 755 mmHg 69%
    13:00 -7°C° 0 mm 3 mps 754 mmHg 70%
    14:00 -6°C° 0 mm 3 mps 754 mmHg 72%
    15:00 -7°C° 0 mm 3 mps 754 mmHg 75%
    16:00 -9°C° 0 mm 3 mps 754 mmHg 79%
    17:00 -10°C° 0 mm 3 mps 754 mmHg 82%
    18:00 -10°C° 0 mm 3 mps 754 mmHg 83%
    19:00 -11°C° 0 mm 4 mps 754 mmHg 85%
    20:00 -11°C° 0 mm 4 mps 754 mmHg 86%
    21:00 -12°C° 0 mm 4 mps 754 mmHg 88%
    22:00 -12°C° 0 mm 4 mps 754 mmHg 89%
    23:00 -13°C° 0 mm 5 mps 754 mmHg 90%

    26 January, Friday

    Time Temperature Precipitation Wind Pressure Humidity
    00:00 -13°C° 0 mm 5 mps 754 mmHg 91%
    01:00 -13°C° 0 mm 5 mps 754 mmHg 91%
    02:00 -13°C° 0 mm 5 mps 753 mmHg 92%
    03:00 -13°C° 0 mm 5 mps 753 mmHg 92%
    04:00 -12°C° 0 mm 5 mps 753 mmHg 91%
    05:00 -11°C° 0 mm 4 mps 753 mmHg 91%
    06:00 -11°C° 0 mm 4 mps 753 mmHg 91%
    07:00 -11°C° 0 mm 4 mps 753 mmHg 91%
    08:00 -12°C° 0 mm 4 mps 753 mmHg 91%
    09:00 -11°C° 0 mm 4 mps 753 mmHg 90%
    10:00 -11°C° 0 mm 5 mps 753 mmHg 88%
    11:00 -10°C° 0 mm 5 mps 754 mmHg 87%
    12:00 -8°C° 0 mm 5 mps 753 mmHg 85%
    13:00 -8°C° 0 mm 5 mps 753 mmHg 84%
    14:00 -7°C° 0 mm 5 mps 753 mmHg 83%
    15:00 -7°C° 0 mm 4 mps 753 mmHg 84%
    16:00 -8°C° 0 mm 4 mps 753 mmHg 86%
    17:00 -8°C° 0 mm 4 mps 753 mmHg 87%
    18:00 -8°C° 0 mm 4 mps 753 mmHg 87%
    19:00 -9°C° 0 mm 4 mps 753 mmHg 88%
    20:00 -9°C° 0 mm 4 mps 753 mmHg 88%
    21:00 -9°C° 0 mm 4 mps 753 mmHg 88%
    22:00 -9°C° 0 mm 4 mps 753 mmHg 88%
    23:00 -9°C° 0 mm 4 mps 753 mmHg 87%
    Show more